{"data":{"norad_id":66677,"epoch":"2026-05-25T03:29:13.119072Z","epoch_age_seconds":62652,"freshness":"FRESH","line1":"1 66677U 25276M   26145.14529073  .00010878  00000+0  47598-3 0  9992","line2":"2 66677  97.4184 219.3573 0006864  97.9917 262.2098 15.22205517 26943","mean_motion":15.22205517,"eccentricity":0.0006864,"inclination_deg":97.4184,"raan_deg":219.3573,"arg_perigee_deg":97.9917,"mean_anomaly_deg":262.2098,"bstar":0.00047598,"rev_number":2694,"period_min":94.599578303854,"perigee_km":494.46896640475,"apogee_km":503.91016031093,"semimajor_km":6877.3265633578,"source":"CELESTRAK","updated_at":"2026-05-25T13:38:06.407873Z"}}